www.pogodaiklimat.ru

Погода и климат >> Архив погоды >> Малайзия >> Kuala Trengganu


ПОГОДА в Kuala Trengganu

  • Прогноз погоды в Kuala Trengganu
  • Монитор погоды в Kuala Trengganu
  • Климат города

АРХИВ ПОГОДЫ в Kuala Trengganu

Время (UTC), дата Ветер
(напр.,м/с)
 
Видим.   Явления Облачность Т
(С)
Тd
(С)
f
(%)
Тe
(С)
Тes
(С)
Комфортность P
(гПа)
Po
(гПа)
Тmin
(С)
Tmax
(С)
R
(мм)
R24
(мм)
S
(см)
00 14.02 В 1 14 км мгла 9/3 600 м
[Cu med, cong Ac cast Ci sp]
+25.7 +22.6 83 +34 +34 очень
душно
1015.9 1015.2 +25.6
06 14.02 СВ 4 14 км мгла 9/1 540 м
[Cu med, cong Ac trans Ci sp]
+29.4 +22.4 66 +38 +45 очень
душно
1015.0 1014.3
12 14.02 СВ 2 14 км мгла 9/4 660 м
[Sc Ac trans Ci sp]
+26.8 +22.6 78 +35 +35 очень
душно
1013.4 1012.7 +30.0
18 14.02 штиль 0 12 км мгла 9/1 660 м
[Sc Ac trans Ci sp]
+23.5 +22.4 94 +31 +31 очень
душно
1015.2 1014.5
00 15.02 Ю 2 10 км мгла 9/3 660 м
[Sc Ac cast]
+23.2 +22.0 93 +32 +32 очень
душно
1015.5 1014.8 +22.7
06 15.02 СВ 4 16 км мгла 9/3 600 м
[Cu med, cong Ac trans Ci sp]
+29.2 +23.1 70 +39 +44 очень
душно
1013.6 1012.9
12 15.02 СВ 1 14 км мгла 9/1 660 м
[Sc diur, vesp Ac trans Ci fib]
+27.1 +22.7 77 +36 +36 очень
душно
1012.2 1011.5 +29.8
18 15.02 ЮЗ 1 14 км мгла 9/1 720 м
[Sc diur, vesp Ac trans Ci sp]
+24.8 +22.5 87 +32 +32 очень
душно
1013.6 1012.9
00 16.02 Ю 1 12 км мгла 9/1 720 м
[Sc Ac trans Ci fib]
+23.1 +22.3 95 +32 +32 очень
душно
1013.0 1012.3 +22.9
06 16.02 СВ 3 16 км мгла 9/3 540 м
[Cu hum Ac trans Ci fib]
+30.2 +23.8 69 +42 +48 опасность
перегрева
1011.5 1010.8
12 16.02 СВ 3 12 км мгла 9/3 660 м
[Sc Ac lent Ci sp]
+27.2 +23.4 80 +37 +37 очень
душно
1010.4 1009.7 +30.5
18 16.02 Ю 1 12 км мгла 9/3 660 м
[Sc Ac trans Ci fib]
+24.5 +23.2 92 +33 +33 очень
душно
1010.9 1010.2
00 17.02 штиль 0 12 км мгла 9/3 540 м
[Cu hum Ac lent Ci sp]
+23.4 +22.5 95 +32 +33 очень
душно
1010.7 1010.0 +23.1
06 17.02 СВ 4 14 км мгла 9/3 540 м
[Cu hum Ac lent Ci sp]
+30.1 +23.5 68 +41 +47 опасность
перегрева
1010.4 1009.7
12 17.02 СВ 3 12 км мгла 9/4 660 м
[Sc Ac trans Ci sp]
+27.3 +22.7 76 +36 +36 очень
душно
1010.2 1009.5 +30.4
18 17.02 Ю 1 12 км мгла 9/1 720 м
[Sc Ac lent Ci sp]
+23.7 +22.5 93 +31 +31 очень
душно
1010.5 1009.8
00 18.02 ЮЗ 2 8000 м мгла 9/1 660 м
[Cu hum Ac trans Ci sp]
+22.5 +21.1 92 +30 +30 очень
душно
1011.2 1010.5 +22.4
06 18.02 В 3 14 км мгла 9/1 540 м
[Cu hum Ac trans Ci sp]
+29.8 +21.9 63 +38 +46 очень
душно
1010.2 1009.5
12 18.02 С 3 12 км мгла 9/1 660 м
[Sc diur, vesp Ac As Ci fib]
+27.5 +22.1 72 +36 +36 очень
душно
1009.6 1008.9 +28.2
18 18.02 ЮЗ 1 12 км мгла 9/1 660 м
[Sc Ac trans Ci sp]
+24.3 +22.5 90 +32 +32 очень
душно
1011.1 1010.4
00 19.02 Ю 2 12 км мгла 9/4 540 м
[Cu Sc Ac As Ci sp]
+23.6 +22.2 92 +31 +31 очень
душно
1010.7 1010.0 +22.5
06 19.02 В 3 18 км мгла 9/4 540 м
[Cu med, cong Ac As Ci sp]
+30.5 +24.2 69 +42 +49 опасность
перегрева
1009.5 1008.8
12 19.02 В 2 12 км мгла 9/3 660 м
[Sc Ac trans Ci sp]
+27.0 +23.3 80 +36 +36 очень
душно
1009.7 1009.0 +31.0 0.0
18 19.02 В 2 12 км мгла 9/3 660 м
[Sc Ac As Ci fib]
+26.3 +23.4 84 +36 +36 очень
душно
1011.4 1010.7
00 20.02 штиль 0 14 км мгла 9/3 540 м
[Cu med, cong Ac trans Ci sp]
+23.9 +23.0 95 +32 +32 очень
душно
1010.9 1010.2 +23.6 0.0
06 20.02 В 3 15 км мгла 9/3 540 м
[Cu med, cong Ac trans Ci sp]
+31.1 +24.0 66 +43 +50 опасность
перегрева
1009.5 1008.8
12 20.02 В 1 14 км мгла 9/4 600 м
[Cu hum Ac As Ci sp]
+27.3 +23.9 82 +38 +38 очень
душно
1009.2 1008.5 +31.1
18 20.02 Ю 1 12 км мгла 9/3 660 м
[Sc Ac lent Ci sp]
+25.6 +23.5 88 +35 +35 очень
душно
1009.6 1008.9

 

Местоположение метеостанции Kuala Trengganu (Малайзия): широта 5.38 долгота 103.10 высота над уровнем моря 6 м.

В архиве по умолчанию представлена погода в Kuala Trengganu за последнюю неделю. Архивные данные за месяц целиком и за предыдущие месяцы, начиная с января 2011 года, Вы можете получить, выбрав интересующий диапазон дат из раскрывающегося списка и нажав кнопку "Ввод!".

Внимание! Время в таблицах - всемирное. Для получения местного времени необходимо прибавить поправку, которая в Kuala Trengganu равна 7 ч.

Смотрите также архив погоды в соседних городах и на ближайших метеорологических станциях:

Погода в Mersing (Малайзия) (81 км)
Погода в Kota Bharu (Малайзия) (126 км)
Погода в Kuantan (Малайзия) (178 км)
Погода в Narathiwat (Таиланд) (184 км)
Погода в Cameron Highlands (Малайзия) (217 км)
Погода в Yala Agromet (Таиланд) (238 км)
Погода в Ipoh (Малайзия) (239 км)
Погода в Pattani (Таиланд) (266 км)
Погода в Sitiawan (Малайзия) (296 км)
Погода в Butterworth Air Base (Малайзия) (301 км)

Пояснения к столбцам:

Ветер - указаны скорость ветра в м/с - средняя за 10 мин, порывы в срок и между сроками (в фигурных скобках) и направление, откуда дует ветер: С - северный, СВ - северо-восточный, В - восточный, ЮВ - юго-восточный, Ю - южный, ЮЗ - юго-западный, З - западный, СЗ - северо-западный.
Видимость - горизонтальная дальность видимости в метрах или километрах. При видимости от 1 до 10 км при отсутствии осадков обычно наблюдается дымка, при ухудшении видимости до 1 км и менее - туман. В сухую погоду видимость может ухудшаться дымом, пылью или мглою.
Явления - указаны атмосферные явления, наблюдавшиеся в срок или в последний час перед сроком; фигурными скобками обозначены явления, наблюдавшиеся между сроками (за 1-3 часа до срока); квадратными скобками обозначены град или гололедные отложения с указанием их диаметра в мм.
Облачность - указаны через наклонную черту общая и нижняя облачность в баллах и высота нижней границы облаков в метрах; квадратными скобками обозначены формы облаков: Ci - перистые, Cs - перисто-слоистые, Cc - перисто-кучевые, Ac - высококучевые, As - высокослоистые, Sc - слоисто-кучевые, Ns - слоисто-дождевые, Cu - кучевые, Cb - кучево-дождевые. Подробнее классификацию облаков см. в Атласе облаков (PDF).
T - Температура воздуха - температура, измеренная на высоте 2 м над землей.
Td - Температура точки росы - температура, при понижении до которой содержащийся в воздухе водяной пар достигнет насыщения.
f - Относительная влажность воздуха - влажноcть воздуха, измеренная на высоте 2 м над землей.
Te - Эффективная температура - температура, которую ощущает одетый по сезону человек в тени. Характеристика душности погоды. При расчете учитывается влияние влажности воздуха и скорости ветра на теплоощущения человека.
Tes - Эффективная температура на солнце - температура, которую ощущает человек, с поправкой на солнечный нагрев. Характеристика знойности погоды. Зависит от высоты солнца над горизонтом, облачности и скорости ветра. Ночью, в пасмурную погоду, а также при ветре 12 м/с и более поправка равна нулю.
P - Атмосферное давление - приведенное к уровню моря атмосферное давление.
Po - Атмосферное давление - измеренное на уровне метеостанции атмосферное давление.
Tmin - Минимальная температура - минимум температуры воздуха на высоте 2 м над землей.
Tmax - Максимальная температура - максимум температуры воздуха на высоте 2 м над землей.
R - Количество осадков - Количество выпавших осадков за период времени, мм. При наведении курсора мыши на число - период времени, за который выпало указанное количество осадков.
R24 - Количество осадков - Количество выпавших осадков за 24 часа, мм.
S - Снежный покров - Высота снежного покрова, см. При наведении курсора мыши на число - состояние снежного покрова и степень покрытия местности в баллах.